Tracking 19293 objects as of 21-Nov-2018
HD Live streaming from Space Station
objects crossing your sky now

SHARC

Track SHARC now!
10-day predictions


NORAD ID: 42712
Int'l Code: 1998-067LT
Perigee: 353.8 km
Apogee: 359.6 km
Inclination: 51.6 °
Period: 91.5 minutes
Semi major axis: 6727 km
RCS: Unknown
Launch date: November 20, 1998
Source: United States (US)
Launch site: TYURATAM MISSILE AND SPACE COMPLEX (TTMTR)
aabbcc
Your satellite tracking list
Your tracking list is empty




NASA's NSSDC Master Catalog

Two Line Element Set (TLE):
1 42712U 98067LT  18324.52223032  .00051974  00000-0  37067-3 0  9995
2 42712  51.6342 289.3493 0004298  74.3075 285.8397 15.73263848 86223
Source of the keplerian elements: AFSPC